GLOBALSTAR M001 1 25162U 98008A 25312.83967279 -.00000039 00000+0 43946-3 0 9996 2 25162 52.0035 272.1974 0000968 185.6930 187.9311 12.38220376261632 GLOBALSTAR M004 1 25163U 98008B 25312.36548985 -.00000084 00000+0 11301-3 0 9994 2 25163 52.0019 334.2955 0002904 248.6675 124.3332 12.63407259279915 GLOBALSTAR M002 1 25164U 98008C 25312.74148670 -.00000045 00000+0 62703-3 0 9993 2 25164 52.0008 237.7575 0002214 50.1208 309.9807 11.61513045200865 GLOBALSTAR M003 1 25165U 98008D 25312.75393362 -.00000213 00000+0 -13137-2 0 9999 2 25165 51.9895 128.1202 0007349 218.2876 155.6964 12.12049859250757 GLOBALSTAR M014 1 25306U 98023A 25312.63048662 -.00000068 00000+0 17776-3 0 9991 2 25306 51.9803 158.2225 0000191 77.4392 321.4819 11.65483504208018 GLOBALSTAR M006 1 25307U 98023B 25312.76377207 -.00000050 00000+0 53063-3 0 9996 2 25307 51.9923 215.7621 0003809 20.6942 347.1819 11.58178000233580 GLOBALSTAR M015 1 25308U 98023C 25312.76616653 -.00000058 00000+0 35467-3 0 9994 2 25308 51.9836 320.8557 0012481 333.6157 196.9337 11.48859368210695 GLOBALSTAR M008 1 25309U 98023D 25312.48416904 -.00000095 00000+0 10359-4 0 9996 2 25309 51.9935 139.6973 0003654 111.5241 266.7287 12.36075603255692 GLOBALSTAR M023 1 25621U 99004A 25312.78530565 -.00000074 00000+0 16856-3 0 9990 2 25621 52.0120 333.1349 0010363 86.5378 85.3592 12.62507676233994 GLOBALSTAR M040 1 25622U 99004B 25312.49465416 -.00000060 00000+0 24735-3 0 9991 2 25622 51.9933 338.3874 0000802 6.5243 141.5633 12.62022131233477 GLOBALSTAR M036 1 25623U 99004C 25312.75321323 .00000034 00000+0 17048-2 0 9997 2 25623 51.9953 219.2712 0010703 331.1964 63.3747 11.86615162196142 GLOBALSTAR M038 1 25624U 99004D 25312.54456751 -.00000055 00000+0 32664-3 0 9995 2 25624 52.0001 15.8351 0001553 6.8546 131.8936 12.32535223220176 GLOBALSTAR M022 1 25649U 99012A 25312.77837009 -.00000074 00000+0 14942-3 0 9995 2 25649 52.0044 257.8346 0003108 89.2040 283.3115 12.02505922193771 GLOBALSTAR M041 1 25650U 99012B 25312.55212425 -.00000076 00000+0 11988-3 0 9991 2 25650 51.9985 144.3018 0000555 202.6613 157.4199 11.96680430195563 GLOBALSTAR M046 1 25651U 99012C 25312.63361205 -.00000109 00000+0 -22843-3 0 9992 2 25651 52.0040 203.0903 0001795 154.7355 213.6844 12.09414820201148 GLOBALSTAR M037 1 25652U 99012D 25312.73553234 -.00000080 00000+0 13132-3 0 9997 2 25652 51.9988 103.8487 0002805 132.6205 240.8970 12.62454272229533 GLOBALSTAR M045 1 25676U 99019A 25312.55053042 -.00000037 00000+0 49594-3 0 9995 2 25676 51.9964 253.8004 0000708 70.9926 100.3199 12.27067997211111 GLOBALSTAR M019 1 25677U 99019B 25312.63251044 -.00000038 00000+0 54429-3 0 9991 2 25677 51.9904 34.0959 0001028 225.6035 282.5882 12.13879499202687 GLOBALSTAR M044 1 25678U 99019C 25312.55893852 -.00000101 00000+0 -24439-3 0 9992 2 25678 51.9998 3.7234 0005898 318.2553 190.7011 11.90259274188519 GLOBALSTAR M042 1 25679U 99019D 25312.52084303 -.00000082 00000+0 99366-4 0 9992 2 25679 52.0041 3.4937 0002935 230.4921 269.8494 12.22090445202903 GLOBALSTAR M025 1 25770U 99031A 25312.63521463 -.00000044 00000+0 73011-3 0 9999 2 25770 51.9782 184.6471 0003034 40.8527 331.1976 11.22558023497933 GLOBALSTAR M049 1 25771U 99031B 25312.69862900 -.00000064 00000+0 37658-4 0 9990 2 25771 51.9858 226.5253 0002231 271.6512 88.4028 11.12121546133503 GLOBALSTAR M047 1 25772U 99031C 25312.70879240 -.00000034 00000+0 99159-3 0 9998 2 25772 51.9812 209.6641 0016431 147.3709 212.8115 11.31930996487477 GLOBALSTAR M052 1 25773U 99031D 25312.48759541 -.00000087 00000+0 -72293-3 0 9994 2 25773 51.9889 333.6493 0002647 51.4307 99.0483 11.15061350494605 GLOBALSTAR M035 1 25851U 99037A 25312.63626681 -.00000065 00000+0 -72756-4 0 9993 2 25851 51.9927 92.8246 0013284 211.1567 161.9386 11.04539927112221 GLOBALSTAR M032 1 25852U 99037B 25312.14287410 .00000080 00000+0 46991-2 0 9998 2 25852 51.9952 269.1981 0012828 48.4746 311.7152 11.19066661150907 GLOBALSTAR M051 1 25853U 99037C 25312.53801696 -.00000051 00000+0 51145-3 0 9997 2 25853 51.9817 52.6586 0001097 120.3805 239.7114 11.42206783148884 GLOBALSTAR M030 1 25854U 99037D 25312.68273804 -.00000119 00000+0 -93248-3 0 9994 2 25854 51.9864 209.2298 0002967 322.6211 37.4399 11.55111169166742 GLOBALSTAR M048 1 25872U 99041A 25312.53889147 -.00000051 00000+0 52718-3 0 9997 2 25872 51.9402 353.2756 0013371 75.5000 73.9654 11.33859773141355 GLOBALSTAR M026 1 25873U 99041B 25312.72890588 -.00000128 00000+0 -23444-2 0 9999 2 25873 51.9989 209.0565 0001891 124.0429 272.2230 11.06850237164491 GLOBALSTAR M043 1 25874U 99041C 25312.84970169 -.00000071 00000+0 -91581-4 0 9993 2 25874 51.9377 105.9422 0013560 193.3141 316.2681 11.25696564139162 GLOBALSTAR M028 1 25875U 99041D 25312.73548619 -.00000090 00000+0 65679-4 0 9992 2 25875 51.9598 122.0438 0063633 26.3093 334.0977 12.50591307208264 GLOBALSTAR M024 1 25883U 99043A 25312.73747970 -.00000104 00000+0 -13982-2 0 9999 2 25883 52.0038 54.4613 0000842 359.2664 172.1637 11.10170268130916 GLOBALSTAR M027 1 25884U 99043B 25312.77278108 -.00000017 00000+0 17485-2 0 9990 2 25884 52.0168 136.4639 0020634 222.5932 137.3261 11.04373168157216 GLOBALSTAR M054 1 25885U 99043C 25312.80636068 .00000003 00000+0 18866-2 0 9996 2 25885 52.0129 239.4188 0005880 63.2902 329.7570 11.39222995135530 GLOBALSTAR M053 1 25886U 99043D 25312.63502519 -.00000021 00000+0 14000-2 0 9998 2 25886 51.9963 194.9399 0003400 348.7135 23.4974 11.27668446135740 GLOBALSTAR M058 1 25907U 99049A 25312.72892777 -.00000077 00000+0 98459-4 0 9999 2 25907 51.9929 83.2044 0002240 169.3752 190.7131 11.93203988558792 GLOBALSTAR M050 1 25908U 99049B 25312.76974391 .00000000 00000+0 99020-3 0 9996 2 25908 51.9987 79.9699 0008288 322.8907 185.6984 12.07460188165652 GLOBALSTAR M033 1 25909U 99049C 25312.67416872 -.00000074 00000+0 16899-3 0 9997 2 25909 51.9920 302.0877 0013650 201.7571 158.2697 12.20292807553383 GLOBALSTAR M055 1 25910U 99049D 25312.72741669 -.00000061 00000+0 28592-3 0 9999 2 25910 52.0029 305.6480 0007278 70.9378 289.2261 12.29435242186066 GLOBALSTAR M057 1 25943U 99058A 25312.23044882 -.00000083 00000+0 87423-4 0 9997 2 25943 51.9991 299.4083 0002448 315.3829 44.6823 12.24828146184584 GLOBALSTAR M059 1 25944U 99058B 25312.38632247 -.00000063 00000+0 28504-3 0 9994 2 25944 51.9992 177.0656 0000819 79.7572 91.5398 11.99986811591359 GLOBALSTAR M056 1 25945U 99058C 25312.60735712 .00000002 00000+0 10494-2 0 9991 2 25945 51.9938 174.7250 0001896 90.7282 294.0929 12.04781467180037 GLOBALSTAR M031 1 25946U 99058D 25312.68505448 -.00000101 00000+0 -10624-3 0 9999 2 25946 51.9974 58.1830 0002102 116.7469 30.9264 12.16043134182120 GLOBALSTAR M039 1 25961U 99062A 25312.58914948 -.00000061 00000+0 23585-3 0 9993 2 25961 51.9827 188.8926 0002170 329.9588 30.1154 12.62336104198452 GLOBALSTAR M034 1 25962U 99062B 25312.54931971 .00000009 00000+0 14266-2 0 9991 2 25962 51.9905 356.1281 0013887 314.4296 195.5188 11.79450974155428 GLOBALSTAR M029 1 25963U 99062C 25312.73335926 -.00000068 00000+0 22357-3 0 9998 2 25963 51.9812 64.0345 0002822 59.1507 89.4296 11.99903192186474 GLOBALSTAR M061 1 25964U 99062D 25312.68523648 -.00000037 00000+0 71514-3 0 9998 2 25964 51.9762 181.7277 0004871 232.4689 164.6564 11.76777803138196 GLOBALSTAR M063 1 26081U 00008A 25312.78079631 -.00000090 00000+0 -11155-3 0 9995 2 26081 51.9938 90.7584 0004139 219.3388 289.6299 11.86177005174731 GLOBALSTAR M062 1 26082U 00008B 25312.67198167 .00000006 00000+0 74537-3 0 9998 2 26082 51.9872 30.8907 0007422 64.9244 100.7619 12.43477163514599 GLOBALSTAR M060 1 26083U 00008C 25312.55490677 -.00000207 00000+0 -11558-2 0 9995 2 26083 52.0044 11.6685 0003445 66.0180 81.7113 12.17666792169958 GLOBALSTAR M064 1 26084U 00008D 25312.62626341 -.00000045 00000+0 54398-3 0 9992 2 26084 52.0009 188.2955 0001752 14.9230 345.1654 11.88538104184279 GLOBALSTAR M065 1 31571U 07020A 25312.31479810 -.00000059 00000+0 25064-3 0 9996 2 31571 51.9865 147.5853 0008983 267.2964 263.4898 12.62013080851603 GLOBALSTAR M069 1 31573U 07020C 25312.59668074 -.00000071 00000+0 20077-3 0 9993 2 31573 52.0001 156.4812 0002831 65.9827 297.3837 12.23463198851807 GLOBALSTAR M072 1 31574U 07020D 25312.28704236 -.00000063 00000+0 28472-3 0 9999 2 31574 51.9949 328.3419 0000956 241.9291 202.4213 11.91653006848643 GLOBALSTAR M071 1 31576U 07020F 25312.60119816 -.00000035 00000+0 55184-3 0 9990 2 31576 52.0044 186.1587 0001890 59.8202 312.9947 12.18261618512547 GLOBALSTAR M067 1 32263U 07048A 25312.47932845 -.00000095 00000+0 15245-4 0 9995 2 32263 51.9749 333.7181 0000893 296.4196 211.5598 12.40680665827394 GLOBALSTAR M070 1 32264U 07048B 25312.65841703 -.00000099 00000+0 28483-4 0 9990 2 32264 51.9765 48.3795 0000786 118.3458 28.5003 12.62325052831917 GLOBALSTAR M066 1 32265U 07048C 25312.78608470 -.00000087 00000+0 65843-4 0 9995 2 32265 51.9607 330.6192 0004701 303.3472 227.8594 12.30378093833092 GLOBALSTAR M068 1 32266U 07048D 25312.74817061 -.00000062 00000+0 22997-3 0 9995 2 32266 51.9877 221.5827 0001824 81.0839 305.2278 12.62832241835823 GLOBALSTAR M079 1 37188U 10054A 25312.70674104 -.00000097 00000+0 40115-4 0 9990 2 37188 52.0051 59.8432 0000554 136.1491 11.4544 12.62268228694706 GLOBALSTAR M074 1 37189U 10054B 25312.73695565 -.00000101 00000+0 16737-4 0 9997 2 37189 52.0027 59.0508 0000625 105.9341 58.9991 12.62272847695315 GLOBALSTAR M076 1 37190U 10054C 25312.76363529 -.00000110 00000+0 -33415-4 0 9997 2 37190 52.0038 59.1552 0000416 109.6404 55.3042 12.62267151695037 GLOBALSTAR M077 1 37191U 10054D 25312.76705814 -.00000038 00000+0 54563-3 0 9999 2 37191 52.0119 22.2647 0001955 89.1555 66.5423 12.12460217695313 GLOBALSTAR M075 1 37192U 10054E 25312.77084788 -.00000113 00000+0 -53246-4 0 9994 2 37192 51.9929 101.3088 0000896 101.7352 37.2666 12.62269508694103 GLOBALSTAR M073 1 37193U 10054F 25312.53369285 -.00000081 00000+0 12806-3 0 9996 2 37193 52.0088 15.9638 0000265 139.1696 0.1746 12.62263839696065 GLOBALSTAR M083 1 37739U 11033A 25312.79117083 -.00000097 00000+0 37580-4 0 9999 2 37739 51.9870 323.7117 0000151 100.2171 71.5253 12.62264192665111 GLOBALSTAR M088 1 37740U 11033B 25312.73114191 -.00000061 00000+0 23908-3 0 9991 2 37740 52.0210 229.7879 0000868 69.4163 308.1962 12.62269718660654 GLOBALSTAR M091 1 37741U 11033C 25312.66717412 -.00000072 00000+0 17714-3 0 9999 2 37741 51.9983 193.2743 0000952 88.1772 298.7267 12.62261515661439 GLOBALSTAR M085 1 37742U 11033D 25312.49330818 -.00000097 00000+0 38144-4 0 9990 2 37742 52.0097 144.9020 0001040 105.1977 271.5097 12.62266735661928 GLOBALSTAR M081 1 37743U 11033E 25312.31608483 -.00000088 00000+0 86123-4 0 9998 2 37743 51.9932 148.1289 0000841 94.7224 76.2866 12.62270302662047 GLOBALSTAR M089 1 37744U 11033F 25312.82549994 -.00000115 00000+0 -62466-4 0 9992 2 37744 51.9911 100.7751 0000823 87.2634 60.6888 12.62272416662954 GLOBALSTAR M084 1 38040U 11080A 25312.35414152 -.00000078 00000+0 14174-3 0 9998 2 38040 52.0022 329.5783 0000412 37.2045 66.9555 12.62264873640875 GLOBALSTAR M080 1 38041U 11080B 25312.49714681 -.00000074 00000+0 16595-3 0 9999 2 38041 52.0076 330.7853 0000711 110.8839 52.9629 12.62270473641015 GLOBALSTAR M082 1 38042U 11080C 25312.67252186 -.00000091 00000+0 69612-4 0 9995 2 38042 52.0079 285.7278 0000579 95.8752 75.4480 12.62264640641741 GLOBALSTAR M092 1 38043U 11080D 25312.56226924 -.00000089 00000+0 83506-4 0 9990 2 38043 52.0107 16.4474 0000469 108.3926 40.9865 12.62267490640189 GLOBALSTAR M090 1 38044U 11080E 25312.69904766 -.00000089 00000+0 81507-4 0 9991 2 38044 52.0129 279.5323 0000357 72.1662 98.8006 12.62263854641865 GLOBALSTAR M086 1 38045U 11080F 25312.84716853 -.00000072 00000+0 17507-3 0 9997 2 38045 51.9900 279.3696 0000695 307.2462 64.7102 12.62279251641831 GLOBALSTAR M097 1 39072U 13005A 25312.63474515 -.00000075 00000+0 16267-3 0 9995 2 39072 52.0035 194.7181 0000758 81.3819 278.7133 12.62267072589052 GLOBALSTAR M093 1 39073U 13005B 25312.68791868 -.00000069 00000+0 19483-3 0 9990 2 39073 52.0094 187.8203 0000650 97.4817 262.6124 12.62270346589019 GLOBALSTAR M094 1 39074U 13005C 25312.76681499 -.00000131 00000+0 -15003-3 0 9993 2 39074 51.9940 101.9119 0000800 118.6700 241.4247 12.62264861590631 GLOBALSTAR M096 1 39075U 13005D 25312.85915046 -.00000103 00000+0 56158-5 0 9998 2 39075 52.0045 150.2605 0000928 103.4928 256.6042 12.62268748589561 GLOBALSTAR M078 1 39076U 13005E 25312.51655567 .00000060 00000+0 91478-3 0 9994 2 39076 51.9871 235.6210 0001317 108.6528 251.4481 12.62272769588144 GLOBALSTAR M095 1 39077U 13005F 25312.85933981 -.00000029 00000+0 41667-3 0 9992 2 39077 52.0072 231.8661 0000733 103.8623 256.2325 12.62266069588047 GLOBALSTAR M087 1 52888U 22064A 25312.55547212 -.00000077 00000+0 15216-3 0 9991 2 52888 52.0021 14.1529 0000483 140.1236 219.9666 12.62260220163278